TimeCDT,TemperatureF,Dew PointF,Humidity,Sea Level PressureIn,VisibilityMPH,Wind Direction,Wind SpeedMPH,Gust SpeedMPH,PrecipitationIn,Events,Conditions,WindDirDegrees,DateUTC
12:55 AM,45.5,36.1,70,30.18,10.0,ESE,8.1,-,0.02,Rain,Rain,120,2012-10-13 05:55:00
1:15 AM,45.1,36.5,72,30.17,10.0,ESE,8.1,-,N/A,Rain,Light Rain,120,2012-10-13 06:15:00
1:35 AM,45.5,36.9,72,30.15,10.0,SE,11.5,-,N/A,Rain,Light Rain,130,2012-10-13 06:35:00
1:55 AM,44.6,38.3,79,30.15,7.0,SE,10.4,-,0.05,Rain,Rain,130,2012-10-13 06:55:00
2:15 AM,45.0,39.2,80,30.13,10.0,SE,9.2,17.3,0.01,Rain,Rain,140,2012-10-13 07:15:00
2:35 AM,43.7,39.7,86,30.13,10.0,SE,4.6,-,0.03,Rain-Thunderstorm,Light Thunderstorms and Rain,130,2012-10-13 07:35:00
2:55 AM,43.7,40.6,89,30.10,10.0,ESE,5.8,-,0.03,Rain,Light Rain,120,2012-10-13 07:55:00
3:15 AM,44.4,40.6,87,30.09,10.0,SE,6.9,-,N/A,,Overcast,130,2012-10-13 08:15:00
3:35 AM,44.8,41.2,87,30.07,10.0,SE,8.1,-,N/A,,Overcast,130,2012-10-13 08:35:00
3:55 AM,45.9,41.9,86,30.07,10.0,SE,5.8,-,N/A,,Overcast,140,2012-10-13 08:55:00
4:15 AM,46.6,42.8,87,30.07,10.0,SE,3.5,-,N/A,Rain,Light Rain,140,2012-10-13 09:15:00
4:35 AM,46.9,43.5,88,30.07,10.0,SSE,4.6,-,N/A,,Light Drizzle,150,2012-10-13 09:35:00
4:55 AM,47.5,43.7,87,30.06,10.0,SSE,4.6,-,N/A,,Overcast,150,2012-10-13 09:55:00
5:15 AM,47.8,43.5,85,30.06,10.0,SSE,4.6,-,N/A,,Overcast,160,2012-10-13 10:15:00
5:35 AM,48.2,43.7,84,30.04,10.0,SSE,5.8,-,N/A,,Overcast,150,2012-10-13 10:35:00
5:55 AM,48.2,43.7,84,30.04,10.0,SE,5.8,-,N/A,Rain,Light Rain,140,2012-10-13 10:55:00
6:15 AM,48.2,44.1,86,30.03,10.0,SE,4.6,-,N/A,Rain,Light Rain,140,2012-10-13 11:15:00
6:35 AM,48.4,44.8,87,30.02,10.0,SE,5.8,-,N/A,Rain,Light Rain,140,2012-10-13 11:35:00
6:55 AM,49.1,45.3,87,30.02,10.0,SSE,6.9,-,0.01,,Overcast,160,2012-10-13 11:55:00
7:15 AM,49.6,45.7,86,30.01,10.0,SSE,9.2,-,N/A,,Overcast,160,2012-10-13 12:15:00
7:35 AM,50.0,46.0,86,29.99,10.0,SSE,9.2,-,N/A,,Mostly Cloudy,150,2012-10-13 12:35:00
7:55 AM,50.5,46.6,86,29.97,10.0,SSE,11.5,-,N/A,,Scattered Clouds,160,2012-10-13 12:55:00
8:15 AM,51.1,47.3,87,29.96,10.0,SSE,9.2,-,N/A,,Scattered Clouds,160,2012-10-13 13:15:00
8:55 AM,53.1,49.1,86,29.97,10.0,South,5.8,-,N/A,Rain,Light Rain,180,2012-10-13 13:55:00
9:35 AM,52.9,50.9,93,30.00,3.0,South,8.1,-,0.10,Rain,Rain,190,2012-10-13 14:35:00
9:55 AM,52.9,51.3,94,29.98,3.0,South,9.2,-,0.18,Rain-Thunderstorm,Rain,170,2012-10-13 14:55:00
10:35 AM,53.1,51.8,95,29.95,2.5,SSE,11.5,-,0.06,Rain,Light Rain,160,2012-10-13 15:35:00
10:55 AM,53.6,52.5,96,29.93,2.5,SSE,9.2,-,0.08,Rain,Light Rain,160,2012-10-13 15:55:00
11:15 AM,54.5,53.1,95,29.93,3.0,South,10.4,-,N/A,Rain,Rain,170,2012-10-13 16:15:00
11:35 AM,55.2,54.0,96,29.88,3.0,SSE,10.4,-,0.01,Rain,Light Rain,160,2012-10-13 16:35:00
11:55 AM,56.5,55.2,96,29.89,4.0,South,9.2,-,0.01,,Overcast,180,2012-10-13 16:55:00
12:15 PM,57.7,56.5,96,29.89,5.0,South,13.8,18.4,N/A,,Overcast,180,2012-10-13 17:15:00
12:35 PM,58.1,56.3,94,29.89,5.0,South,12.7,-,N/A,,Overcast,190,2012-10-13 17:35:00
12:55 PM,59.0,57.2,94,29.88,7.0,South,12.7,16.1,N/A,,Overcast,180,2012-10-13 17:55:00
1:15 PM,58.6,56.8,94,29.86,7.0,South,10.4,-,N/A,Rain,Light Rain,170,2012-10-13 18:15:00
1:35 PM,58.8,57.0,94,29.86,7.0,South,10.4,-,N/A,Rain,Light Rain,180,2012-10-13 18:35:00
1:55 PM,58.8,57.2,94,29.83,5.0,South,8.1,-,0.01,Rain,Rain,170,2012-10-13 18:55:00
2:15 PM,59.2,57.7,95,29.82,4.0,South,12.7,-,0.01,Rain,Light Rain,180,2012-10-13 19:15:00
2:35 PM,61.2,59.7,95,29.79,7.0,SSE,4.6,-,0.01,,Overcast,150,2012-10-13 19:35:00
2:55 PM,60.8,58.6,93,29.82,10.0,South,11.5,-,0.01,,Overcast,190,2012-10-13 19:55:00
3:15 PM,60.8,59.0,94,29.81,7.0,South,10.4,-,N/A,,Overcast,180,2012-10-13 20:15:00
3:35 PM,60.8,59.0,94,29.81,5.0,South,6.9,-,N/A,,Overcast,190,2012-10-13 20:35:00
3:55 PM,61.2,59.4,94,29.79,5.0,South,8.1,-,N/A,,Overcast,180,2012-10-13 20:55:00
4:15 PM,61.5,59.7,94,29.79,5.0,South,6.9,-,N/A,,Overcast,180,2012-10-13 21:15:00
4:35 PM,61.7,59.9,94,29.81,4.0,South,8.1,-,N/A,,Overcast,180,2012-10-13 21:35:00
4:55 PM,61.7,59.9,94,29.80,4.0,South,6.9,-,N/A,,Overcast,170,2012-10-13 21:55:00
5:15 PM,61.7,59.9,94,29.79,3.0,South,6.9,-,N/A,,Overcast,170,2012-10-13 22:15:00
5:35 PM,61.7,60.1,94,29.80,3.0,South,5.8,-,N/A,,Overcast,170,2012-10-13 22:35:00
5:55 PM,61.9,60.3,94,29.80,3.0,South,6.9,-,N/A,,Overcast,170,2012-10-13 22:55:00
6:15 PM,62.1,60.4,94,29.79,3.0,SSE,5.8,-,N/A,,Overcast,160,2012-10-13 23:15:00
6:35 PM,62.6,61.0,94,29.78,4.0,SSE,5.8,-,N/A,,Overcast,160,2012-10-13 23:35:00
7:15 PM,63.5,61.7,94,29.79,5.0,South,5.8,-,N/A,,Overcast,170,2012-10-14 00:15:00
7:35 PM,63.1,61.3,94,29.79,4.0,South,5.8,-,N/A,,Mostly Cloudy,180,2012-10-14 00:35:00
7:55 PM,63.5,61.7,94,29.78,4.0,SSE,5.8,-,N/A,,Overcast,160,2012-10-14 00:55:00
8:35 PM,64.2,62.6,94,29.76,5.0,South,9.2,-,N/A,,Overcast,170,2012-10-14 01:35:00
9:15 PM,64.6,62.8,94,29.76,4.0,South,8.1,-,N/A,Rain,Rain,180,2012-10-14 02:15:00
9:35 PM,64.8,63.1,94,29.76,4.0,South,6.9,-,0.01,Rain,Rain,170,2012-10-14 02:35:00
9:55 PM,64.6,63.1,95,29.75,4.0,South,8.1,-,0.01,,Overcast,170,2012-10-14 02:55:00
10:15 PM,64.8,63.5,96,29.75,5.0,South,8.1,-,N/A,,Overcast,180,2012-10-14 03:15:00
11:15 PM,65.3,62.2,90,29.74,7.0,South,8.1,-,N/A,,Scattered Clouds,180,2012-10-14 04:15:00
11:35 PM,64.4,61.9,92,29.73,7.0,South,9.2,-,N/A,,Clear,180,2012-10-14 04:35:00
11:55 PM,64.8,61.9,90,29.72,10.0,South,8.1,-,N/A,,Scattered Clouds,180,2012-10-14 04:55:00